Starlink 4445

operational
NORAD ID: 53474 Int'l Des: 2022-099 Owner: SPXS Country: US Constellation: starlink
LEOCIRCULARRETROGRADESSO

Starlink 4445について

説明を読み込み中...

リアルタイム位置

3D地球を読み込み中...

次回通過

高度履歴

Altitude vs Time

uPlot chart will show altitude changes over time

軌道要素

1 53474U 22099K 25259.27644869 -.00000243 00000-0 -14385-4 0 9990
2 53474 97.6021 19.4634 0002203 90.3496 269.7980 15.01258397169812
Epoch: Sep 16, 2025 • Age: 8 hours

現在のステータス

高度 582.9 km
速度 7.57 km/s
衛星直下点 -48.22°S, 176.28°E
打ち上げ日 Aug 12, 2022
運用期間 3 years
タイプ internet

技術仕様

分類 Payload
質量 300.00 kg
乾燥質量 275.00 kg
総質量 300.00 kg
長さ 0.20 m
直径 2.80 m
スパン 9.00 m
形状 Box + pan
製造者 SPXS
バスタイプ Starlink
フェーズステータス In Orbit
所有者/国 SPXS/US

大規模コンステレーション

Loading constellations...